Back to catalog

FENGYUN 1C DEB

AliveSSO
NORAD 31996·DEBRIS·🇨🇳 China

Launched May 10, 1999 from Taiyuan Satellite Launch Center

Loading…

Next Passes (next 24 hours)

TLE

AgingSource: Space-Track

Epoch: Sep 11, 2026, 00:23 UTC

1 31996U 99025CPZ 26254.01614681  .00001628  00000-0  16894-2 0  9996
2 31996  99.2977 178.6083 0292454 144.7704 217.3160 13.59849519583874

Track FENGYUN 1C DEB in real time with AllMySat

Download on the App Store